Voltar ao catálogo

FENGYUN 1C DEB

AtivoSSO
NORAD 29796·DEBRIS·🇨🇳 China

Lançado May 10, 1999 de Taiyuan Satellite Launch Center

Loading…

Próximas Passagens (próximas 24 horas)

TLE

AtualizadoSource: Space-Track

Época: Sep 14, 2026, 09:50 UTC

1 29796U 99025CN  26257.40979435  .00000729  00000-0  40993-3 0  9997
2 29796  98.8368 310.9781 0051903 205.7936 220.3405 14.12949338  9511

Acompanhe FENGYUN 1C DEB em tempo real com AllMySat

Download on the App Store